Location: Bratislava
(48.1500°N, 17.1167°E)
Time: 17:28:32
(UTC+01:00)

ISS - Pass Details

Date: 22 January 2020
Orbit: 415 x 422 km, 51.6° (Epoch: 26 February)

Event Time Altitude Azimuth Distance (km) Brightness Sun altitude
Rises 18:18:22 0° 222° (SW) 2,369 0.9 -17.0°
Reaches altitude 10° 18:20:33 10° 214° (SW) 1,506 -0.3 -17.4°
Maximum altitude 18:23:42 36° 146° (SE) 685 -2.9 -17.9°
Enters shadow 18:23:49 36° 140° (SE) 687 -3.0 -17.9°
